Weather History for KNFL - May, 2014

Change the Weather History Date:

Saturday, May 31, 2014

  Actual Average (KRNO) Record (KRNO)
Temperature  
Mean Temperature 62 °F 64 °F  
Max Temperature 84 °F 78 °F 98 °F (1910)
Min Temperature 43 °F 49 °F 30 °F (1951)
Degree Days  
Heating Degree Days 2 4  
Month to date heating degree days 206  
Since 1 July heating degree days 4868  
Cooling Degree Days 0 2  
Month to date cooling degree days 36  
Year to date cooling degree days 37  
Growing Degree Days 12 (Base 50)    
Moisture  
Dew Point 20 °F    
Average Humidity 21    
Maximum Humidity 51    
Minimum Humidity 8    
Precipitation  
Precipitation 0.00 in 0.02 in 0.75 in (1961)
Month to date precipitation 0.49  
Year to date precipitation 3.77  
Snow  
Snow 0.00 in 0.00 in 0.00 in ()
Month to date snowfall 0.3  
Since 1 July snowfall 21.8  
Snow Depth -    
Sea Level Pressure  
Sea Level Pressure 29.88 in    
Wind  
Wind Speed 7 mph (WNW)    
Max Wind Speed 12 mph    
Max Gust Speed 18 mph    
Visibility 10 miles    
Events      
T = Trace of Precipitation, MM = Missing Value Source: NWS Daily Summary

Daily Weather History Graph

Daily Weather History Graph

Search for Another Location

Airport or City:

Trip Planner

Search our weather history database for the weather conditions in past years. The results will help you decide how hot, cold, wet, or windy it might be!

Date:

Astronomy

May. 31, 2014 Rise Set
Actual Time 5:30 AM PDT 8:15 PM PDT
Civil Twilight 4:58 AM PDT 8:46 PM PDT
Nautical Twilight 4:18 AM PDT 9:26 PM PDT
Astronomical Twilight 3:33 AM PDT 10:11 PM PDT
Moon 8:11 AM PDT (5/31) 10:37 PM PDT (5/31)
Length of Visible Light 15h 48m
Length of Day
14h 45m
Waxing Crescent, 9% of the Moon is Illuminated
May 31
Waxing Crescent
Jun 5
First Quarter
Jun 12
Full
Jun 19
Last Quarter
Jun 27
New

Hourly Weather History & Observations

Time (PDT) Temp. Windchill Dew Point Humidity Pressure Visibility Wind Dir Wind Speed Gust Speed Precip Events Conditions
12:56 AM 57.9 °F - 24.1 °F 27% 29.88 in 10.0 mi NW 6.9 mph - N/A   Clear
1:56 AM 55.0 °F - 23.0 °F 29% 29.89 in 10.0 mi North 8.1 mph - N/A   Clear
2:56 AM 52.0 °F - 25.0 °F 35% 29.90 in 10.0 mi West 5.8 mph - N/A   Clear
3:56 AM 46.9 °F - 26.1 °F 44% 29.90 in 10.0 mi Calm Calm - N/A   Clear
4:56 AM 43.0 °F 39.5 °F 26.1 °F 51% 29.89 in 10.0 mi SSE 5.8 mph - N/A   Clear
5:56 AM 44.1 °F 41.5 °F 27.0 °F 51% 29.90 in 10.0 mi SSW 4.6 mph - N/A   Clear
6:56 AM 53.1 °F - 27.0 °F 37% 29.91 in 10.0 mi SSE 5.8 mph - N/A   Clear
7:56 AM 59.0 °F - 24.1 °F 26% 29.92 in 10.0 mi SSE 3.5 mph - N/A   Clear
8:56 AM 64.9 °F - 25.0 °F 22% 29.92 in 10.0 mi NNW 4.6 mph - N/A   Clear
9:56 AM 69.1 °F - 19.0 °F 15% 29.91 in 10.0 mi NW 5.8 mph - N/A   Clear
10:56 AM 72.0 °F - 18.0 °F 13% 29.90 in 10.0 mi Variable 3.5 mph - N/A   Clear
11:56 AM 73.9 °F - 18.0 °F 12% 29.89 in 10.0 mi West 5.8 mph - N/A   Clear
12:56 PM 77.0 °F - 17.1 °F 10% 29.88 in 10.0 mi WNW 6.9 mph - N/A   Clear
1:56 PM 78.1 °F - 14.0 °F 9% 29.86 in 10.0 mi Variable 6.9 mph 18.4 mph N/A   Clear
2:56 PM 82.0 °F - 14.0 °F 8% 29.85 in 10.0 mi NNW 11.5 mph 17.3 mph N/A   Clear
3:56 PM 82.9 °F - 14.0 °F 8% 29.83 in 10.0 mi North 10.4 mph - N/A   Partly Cloudy
4:56 PM 82.0 °F - 14.0 °F 8% 29.82 in 10.0 mi Variable 5.8 mph - N/A   Clear
5:56 PM 82.9 °F - 17.1 °F 9% 29.82 in 10.0 mi North 10.4 mph - N/A   Partly Cloudy
6:56 PM 81.0 °F - 18.0 °F 10% 29.82 in 10.0 mi NW 11.5 mph - N/A   Clear
7:56 PM 77.0 °F - 16.0 °F 10% 29.84 in 10.0 mi NW 10.4 mph - N/A   Clear
8:56 PM 66.9 °F - 19.0 °F 16% 29.86 in 10.0 mi NW 8.1 mph - N/A   Clear
9:56 PM 68.0 °F - 18.0 °F 15% 29.88 in 10.0 mi WNW 9.2 mph - N/A   Clear
10:56 PM 66.0 °F - 19.0 °F 17% 29.89 in 10.0 mi WNW 11.5 mph - N/A   Clear
11:56 PM 62.1 °F - 19.9 °F 20% 29.89 in 10.0 mi WNW 6.9 mph - N/A   Clear